HB9TJR-3 Weather Reports


Display with metric or nautical units.
time (UTC)temp
F
wind
direction
speed
MPH
gust
MPH
rain 1hr
in
rain 24hr
in
rain mn
in
humidity
%
barometer
mb
20260503051935 52 0 0.0 0.0 0.00 0.00 0.00 51 866.4
20260503043134 52 0 0.0 0.0 0.00 0.00 0.00 50 866.4
20260503041534 52 0 0.0 0.0 0.00 0.00 0.00 50 866.4
20260503035934 52 0 0.0 0.0 0.00 0.00 0.00 46 866.5
20260503034334 52 0 0.0 0.0 0.00 0.00 0.00 47 866.6
20260503032734 53 0 0.0 0.0 0.00 0.00 0.00 47 866.7
20260503031134 53 0 0.0 0.0 0.00 0.00 0.00 47 866.7
20260503025534 53 0 0.0 0.0 0.00 0.00 0.00 49 866.6
20260503023934 54 0 0.0 0.0 0.00 0.00 0.00 50 866.9
20260503022334 53 0 0.0 0.0 0.00 0.00 0.00 57 867.0
20260503020734 53 0 0.0 0.0 0.00 0.00 0.00 62 867.1
20260503015134 53 0 0.0 0.0 0.00 0.00 0.00 63 867.2
20260503013534 53 0 0.0 0.0 0.00 0.00 0.00 65 867.3
20260503010336 54 0 0.0 0.0 0.00 0.00 0.00 69 867.4
20260503004735 54 0 0.0 0.0 0.00 0.00 0.00 69 867.5
20260503003134 54 0 0.0 0.0 0.00 0.00 0.00 69 867.6
20260503001534 54 0 0.0 0.0 0.00 0.00 0.00 69 867.8
20260502235936 54 0 0.0 0.0 0.00 0.00 0.00 69 867.9
20260502234334 54 0 0.0 0.0 0.00 0.00 0.00 67 868.1
20260502232734 54 0 0.0 0.0 0.00 0.00 0.00 66 868.0
20260502231134 55 0 0.0 0.0 0.00 0.00 0.00 64 868.0
20260502225534 55 0 0.0 0.0 0.00 0.00 0.00 62 868.3
20260502223935 55 0 0.0 0.0 0.00 0.00 0.00 63 868.4
20260502222334 55 0 0.0 0.0 0.00 0.00 0.00 63 868.6
20260502220735 55 0 0.0 0.0 0.00 0.00 0.00 61 868.5
20260502215134 55 0 0.0 0.0 0.00 0.00 0.00 61 868.6
20260502213535 55 0 0.0 0.0 0.00 0.00 0.00 61 868.6
20260502211934 55 0 0.0 0.0 0.00 0.00 0.00 61 868.7
20260502210459 55 0 0.0 0.0 0.00 0.00 0.00 62 868.8
20260502210336 55 0 0.0 0.0 0.00 0.00 0.00 62 868.8
20260502204734 55 0 0.0 0.0 0.00 0.00 0.00 64 868.9
20260502203135 55 0 0.0 0.0 0.00 0.00 0.00 69 869.1
20260502201534 55 0 0.0 0.0 0.00 0.00 0.00 72 869.2
20260502195935 54 0 0.0 0.0 0.00 0.00 0.00 72 869.1
20260502194334 54 0 0.0 0.0 0.00 0.00 0.00 72 869.0
20260502192735 55 0 0.0 0.0 0.00 0.00 0.00 72 868.9
20260502191135 55 0 0.0 0.0 0.00 0.00 0.00 72 868.8
20260502185534 56 0 0.0 0.0 0.00 0.00 0.00 71 868.7
20260502183935 56 0 0.0 0.0 0.00 0.00 0.00 69 868.6
20260502182334 57 0 0.0 0.0 0.00 0.00 0.00 68 868.6
20260502170334 59 0 0.0 0.0 0.00 0.00 0.00 53 868.6
20260502163135 59 0 0.0 0.0 0.00 0.00 0.00 56 868.9
20260502161534 59 0 0.0 0.0 0.00 0.00 0.00 61 869.2
20260502151134 60 0 0.0 0.0 0.00 0.00 0.00 63 869.6
20260502130334 60 0 0.0 0.0 0.00 0.00 0.00 68 870.9
20260502123134 60 0 0.0 0.0 0.00 0.00 0.00 73 871.0
20260502121535 60 0 0.0 0.0 0.00 0.00 0.00 72 871.1
20260502111134 59 0 0.0 0.0 0.00 0.00 0.00 72 871.6
20260502105534 59 0 0.0 0.0 0.00 0.00 0.00 78 871.7
20260502103934 59 0 0.0 0.0 0.00 0.00 0.00 75 871.9
20260502100736 57 0 0.0 0.0 0.00 0.00 0.00 78 872.1
20260502090335 57 0 0.0 0.0 0.00 0.00 0.00 80 872.3
20260502071135 57 0 0.0 0.0 0.00 0.00 0.00 76 872.5
20260502065534 56 0 0.0 0.0 0.00 0.00 0.00 78 872.6
20260502063937 56 0 0.0 0.0 0.00 0.00 0.00 77 872.7
20260502062336 55 0 0.0 0.0 0.00 0.00 0.00 79 872.6
20260502060735 54 0 0.0 0.0 0.00 0.00 0.00 79 872.6
20260502055134 54 0 0.0 0.0 0.00 0.00 0.00 77 872.6
20260502053534 54 0 0.0 0.0 0.00 0.00 0.00 80 872.6